Regional Weather Roundup
Issued by NWS

Home | Current Version | Previous Version | Text Only | Print | Product List | Glossary Off
Versions: 1 2 3 4 5 6 7 8 9 10 11 12 13 14 15 16 17 18 19 20 21 22 23 24 25 26 27 28 29 30 31 32 33 34 35 36 37 38 39 40 41 42 43 44 45 46 47 48 49 50

000
ASUS43 KFSD 302310
RWRSD

WEATHER ROUNDUP FOR SOUTH DAKOTA
NATIONAL WEATHER SERVICE SIOUX FALLS SD
600 PM CDT TUE JUN 30 2015

NOTE: "FAIR" INDICATES FEW OR NO CLOUDS BELOW 12,000 FEET WITH NO
SIGNIFICANT WEATHER AND/OR OBSTRUCTIONS TO VISIBILITY.


SDZ001>005-009-010-012>017-010000-
NORTHWEST AND NORTH CENTRAL SOUTH DAKOTA

CITY           SKY/WX    TMP DP  RH WIND       PRES   REMARKS
BUFFALO          N/A     84  67  56 S14       29.81F
FAITH            N/A     76  63  64 SE17      29.87F
MOBRIDGE       CLOUDY    75  65  70 E10       29.85S
$$

SDZ012>016-024>037-041>051-057-063-072>074-010000-
SOUTHWEST AND SOUTH CENTRAL SOUTH DAKOTA

CITY           SKY/WX    TMP DP  RH WIND       PRES   REMARKS
RAPID CTY ARPT MOSUNNY   83  67  58 NE8       29.90S
PIERRE         CLOUDY    76  67  73 E13       29.85F
CUSTER         MOSUNNY   81  56  42 CALM      30.06F
ELLSWORTH AFB  MOSUNNY   83  67  57 E5        29.90S
PHILIP         CLOUDY    82  67  60 E15       29.84F
PINE RIDGE     MOSUNNY   89  60  37 NW6       29.87F
SPEARFISH      FAIR      82  64  54 N8        29.96S
WINNER         FAIR      78  61  55 E13G22    29.87S
$$

SDZ004>011-016>023-039-040-010000-
NORTHEAST SOUTH DAKOTA

CITY           SKY/WX    TMP DP  RH WIND       PRES   REMARKS
ABERDEEN       PTSUNNY   77  64  64 SW5       29.88F
WATERTOWN      CLOUDY    71  61  70 E8        29.91S
BROOKINGS      CLOUDY    73  61  64 E9        29.92S
SISSETON         N/A     73  58  59 SE9       29.90S
$$

SDZ017-020-022-023-036>040-048>070-010000-
SOUTHEAST SOUTH DAKOTA

CITY           SKY/WX    TMP DP  RH WIND       PRES   REMARKS
SIOUX FALLS    CLOUDY    72  67  84 W3        29.89F HAZE
HURON          CLOUDY    71  69  93 CALM      29.88R FOG
CHAMBERLAIN    CLOUDY    74  64  71 E8        29.89S
MITCHELL       LGT RAIN  72  70  93 S6        29.88F FOG
YANKTON        CLOUDY    72  64  78 SE3       29.89S
$$

ABBREVIATIONS USED IN REMARKS
   TC - TEMPERATURE IN CELSIUS
  WCI - WIND CHILL INDEX
   HX - HEAT INDEX
  VSB - VISIBILITY




USA.gov is the U.S. government's official web portal to all federal, state and local government web resources and services.